www.pogodaiklimat.ru

Погода и климат >> Архив погоды >> Россия >> Чукотка >> Билибино


ПОГОДА в Билибино

  • Прогноз погоды в Билибино
  • Монитор погоды в Билибино
  • Климат города

АРХИВ ПОГОДЫ в Билибино

Время (UTC), дата Ветер
(напр.,м/с)
 
Видим.   Явления Облачность Т
(С)
Тd
(С)
f
(%)
Тe
(С)
Тes
(С)
Комфортность P
(гПа)
Po
(гПа)
Тmin
(С)
Tmax
(С)
R
(мм)
S
(см)
03 16.03 Ю 2
{3}
10 км снежные кристаллы 10/3 600 м
[Sc Ac trans Cs]
-6.5 -10.1 76 -11 -10 1018.1 982.4
06 16.03 Ю 2
{3}
4000 м слабый снег 10/5 600 м
[Sc As op]
-7.6 -9.8 84 -12 -12 1018.3 982.5
09 16.03 штиль 0
{2}
4000 м слабый снег 10/6 600 м
[Sc As trans]
-15.4 -16.7 90 -15 -15 1019.9 982.9 -4.9 0.4
12 16.03 штиль 0
{2}
20 км {снег} 8/8 600 м
[Sc]
-16.2 -18.1 85 -16 -16 1020.6 983.4
15 16.03 СВ 2
{3}
20 км 8/8 600 м
[Sc]
-15.4 -16.7 90 -20 -20 1020.5 983.5
18 16.03 ЮЗ 1
{2}
20 км 10/8 600 м
[Sc Ac As]
-18.9 -20.8 85 -22 -22 1021.2 983.6
21 16.03 СВ 3
{6}
50 км ясно -17.5 -20.1 80 -25 -24 1020.9 983.6 -19.2 0.0 39
00 17.03 СВ 4
{7}
50 км ясно -14.6 -18.9 70 -22 -20 1020.5 983.5
03 17.03 СВ 3
{7}
50 км 3/3 600 м
[Sc]
-13.0 -18.2 65 -19 -18 1019.8 983.1
06 17.03 СВ 2
{5}
20 км снежные кристаллы 10/6 600 м
[Sc Cs]
-15.2 -18.6 75 -20 -20 1020.4 983.4
09 17.03 СВ 2
{3}
20 км снежные кристаллы 10/8 600 м
[Sc Cs]
-16.9 -19.5 80 -22 -22 1021.2 983.9 -12.9 0.2
12 17.03 СВ 1
{3}
20 км снежные кристаллы 10/8 600 м
[Sc Cs]
-16.1 -18.7 80 -19 -19 1021.5 984.3
15 17.03 С 1
{2}
20 км снежные кристаллы 10/6 600 м
[Sc Cs]
-19.4 -22.0 80 -22 -22 1022.4 984.8
18 17.03 С 1
{2}
20 км снежные кристаллы 10/8 600 м
[Sc Cs]
-16.5 -18.4 85 -19 -19 1023.3 986.0
21 17.03 штиль 0
{2}
50 км {снег} 3/3 600 м
[Sc]
-16.9 -21.1 70 -17 -16 1024.9 987.5 -22.1 0.2 39
00 18.03 С 1
{2}
50 км {снег} ясно -11.7 -17.9 60 -14 -10 1024.3 987.6
03 18.03 СВ 3
{3}
50 км ясно -11.8 -18.1 59 -18 -16 1023.7 987.0
06 18.03 СВ 2
{5}
50 км ясно -16.2 -21.1 66 -21 -21 1023.6 986.3
09 18.03 С 1
{7}
20 км ясно -21.5 -24.0 80 -25 -25 1023.8 985.8 -10.0
12 18.03 С 2
{8}
20 км ясно -22.6 -25.1 80 -29 -29 1022.6 984.4
15 18.03 СВ 2
{5}
20 км ясно -24.8 -27.3 80 -31 -31 опасность
обморожения
1021.9 983.4
18 18.03 СВ 1
{4}
20 км ясно -26.9 -30.0 75 -31 -31 опасность
обморожения
1021.4 982.6
21 18.03 СВ 2
{3}
50 км ясно -24.5 -27.7 75 -31 -30 опасность
обморожения
1021.0 982.6 -29.8 38
00 19.03 СВ 1
{4}
50 км 8/0
[Ac As Ci sp]
-18.2 -24.1 60 -21 -19 1020.1 982.6
03 19.03 С 2
{3}
50 км 10/0
[Ac As Ci]
-14.2 -21.3 55 -19 -18 1019.4 982.5
06 19.03 СВ 2
{3}
50 км 8/4 600 м
[Sc Ci ing]
-17.4 -23.3 60 -23 -23 1020.6 983.3
09 19.03 штиль 0
{3}
20 км ясно -27.0 -29.4 80 -27 -27 1024.0 985.1 -12.3
12 19.03 штиль 0
{2}
20 км ясно -31.0 -34.0 75 -31 -31 опасность
обморожения
1025.8 986.2
15 19.03 штиль 0
{3}
20 км ясно -33.2 -36.9 69 -33 -33 опасность
обморожения
1027.1 987.1
18 19.03 СВ 1
{3}
20 км ясно -32.6 -36.1 71 -37 -37 опасность
обморожения
1027.6 987.6
21 19.03 СВ 2
{4}
50 км ясно -26.9 -30.0 75 -34 -33 опасность
обморожения
1027.3 988.3 -34.2 38
00 20.03 СВ 3
{5}
50 км ясно -22.1 -26.9 65 -30 -28 1026.1 987.9
03 20.03 СВ 3
{5}
50 км ясно -18.6 -24.4 60 -26 -24 1024.6 986.9
06 20.03 СВ 3
{5}
50 км ясно -21.0 -25.9 65 -29 -29 1024.5 986.5
09 20.03 штиль 0
{5}
20 км ясно -29.5 -32.6 74 -30 -30 1026.4 986.9 -18.9
12 20.03 СВ 1
{4}
50 км ясно -31.0 -34.6 70 -35 -35 опасность
обморожения
1026.3 986.7
15 20.03 штиль 0
{4}
20 км ясно -30.4 -34.1 70 -30 -30 1026.2 986.7
18 20.03 СВ 1
{3}
50 км ясно -29.7 -33.5 69 -34 -34 опасность
обморожения
1025.9 986.4
21 20.03 С 1
{5}
50 км 6/0
[Ci fib]
-26.7 -29.8 75 -30 -29 1025.6 986.6 -32.1 37
00 21.03 СВ 2
{4}
50 км {снег} 10/0
[Ac lent Cs]
-21.0 -25.9 65 -27 -25 1024.1 986.1
03 21.03 СВ 2
{3}
20 км снежные кристаллы 10/0
[Cs]
-16.9 -22.8 60 -22 -20 1023.0 985.6
06 21.03 СВ 1
{3}
20 км снежные кристаллы 10/0
[Ac lent Cs]
-17.7 -22.7 65 -21 -20 1022.9 985.4
09 21.03 С 1
{2}
20 км {снег} 8/0
[Ac lent Cs]
-25.8 -28.2 80 -29 -29 1024.5 985.7 -16.4 0.2
12 21.03 СВ 1
{2}
10 км слабый снег 10/0
[As op]
-22.9 -25.4 80 -26 -26 1024.1 985.8
15 21.03 штиль 0
{2}
10 км снежные кристаллы 10/0
[As op]
-26.7 -29.8 75 -27 -27 1024.9 985.9
18 21.03 штиль 0
{2}
20 км снежные кристаллы 10/0
[Ac trans Cs]
-31.3 -35.0 70 -31 -31 опасность
обморожения
1025.5 985.9
21 21.03 СВ 2
{2}
20 км снежные кристаллы 10/3 600 м
[Sc Ac trans Cs]
-24.8 -28.7 70 -31 -31 опасность
обморожения
1024.9 986.3 -31.7 0.3 38
00 22.03 штиль 0
{2}
50 км {снег} 6/3 600 м
[Sc Ac trans]
-15.0 -23.1 50 -15 -13 1023.1 986.0
03 22.03 Ю 1
{1}
20 км 8/1 600 м
[Sc Ac trans]
-10.1 -16.4 60 -12 -11 1021.9 985.5
06 22.03 ЮВ 1
{2}
10 км снежные кристаллы 10/3 600 м
[Sc Ac trans Cs]
-10.2 -14.6 70 -12 -12 1021.9 985.5
09 22.03 штиль 0
{2}
10 км снежные кристаллы 10/4 600 м
[Sc Cs]
-17.9 -19.8 85 -18 -18 1024.0 986.4 -6.1 0.0
12 22.03 штиль 0
{1}
10 км снежные кристаллы 10/6 600 м
[Sc Cs]
-19.6 -21.5 85 -20 -20 1024.2 986.3
15 22.03 штиль 0
{1}
10 км снежные кристаллы 10/8 600 м
[Sc Cs]
-16.3 -18.2 85 -16 -16 1023.3 986.0
18 22.03 штиль 0
{2}
20 км {снег} 10/3 600 м
[Sc Cs]
-22.2 -24.7 80 -22 -22 1023.9 985.7
21 22.03 штиль 0
{2}
10 км снежные кристаллы 10/0
[Ac lent Cs]
-17.8 -21.1 75 -18 -17 1023.6 986.0 -23.2 0.3 39

 

Местоположение метеостанции Билибино (Чукотка, Россия): широта 68.05 долгота 166.40 высота над уровнем моря 280 м.

В архиве по умолчанию представлена погода в Билибино за последнюю неделю. Архивные данные за месяц целиком и за предыдущие месяцы, начиная с января 2011 года, Вы можете получить, выбрав интересующий диапазон дат из раскрывающегося списка и нажав кнопку "Ввод!".

Внимание! Время в таблицах - всемирное. Для получения местного времени необходимо прибавить поправку, которая в Билибино равна 12 ч.

Смотрите также архив погоды в соседних городах и на ближайших метеорологических станциях:

Погода на Островном (Чукотка, Россия) (96 км)
Погода в Илирнее (Чукотка, Россия) (109 км)
Погода в Раучуе (Чукотка, Россия) (161 км)
Погода в Баимке (Чукотка, Россия) (194 км)
Погода в Чауне (Чукотка, Россия) (198 км)
Погода в Анюйске (Чукотка, Россия) (205 км)
Погода на Айон Острове (Чукотка, Россия) (217 км)
Погода в Константиновской (Чукотка, Россия) (220 км)
Погода в Черском (Якутия, Россия) (222 км)
Погода в Певеке (Чукотка, Россия) (238 км)

Пояснения к столбцам:

Ветер - указаны скорость ветра в м/с - средняя за 10 мин, порывы в срок и между сроками (в фигурных скобках) и направление, откуда дует ветер: С - северный, СВ - северо-восточный, В - восточный, ЮВ - юго-восточный, Ю - южный, ЮЗ - юго-западный, З - западный, СЗ - северо-западный.
Видимость - горизонтальная дальность видимости в метрах или километрах. При видимости от 1 до 10 км при отсутствии осадков обычно наблюдается дымка, при ухудшении видимости до 1 км и менее - туман. В сухую погоду видимость может ухудшаться дымом, пылью или мглою.
Явления - указаны атмосферные явления, наблюдавшиеся в срок или в последний час перед сроком; фигурными скобками обозначены явления, наблюдавшиеся между сроками (за 1-3 часа до срока); квадратными скобками обозначены град или гололедные отложения с указанием их диаметра в мм.
Облачность - указаны через наклонную черту общая и нижняя облачность в баллах и высота нижней границы облаков в метрах; квадратными скобками обозначены формы облаков: Ci - перистые, Cs - перисто-слоистые, Cc - перисто-кучевые, Ac - высококучевые, As - высокослоистые, Sc - слоисто-кучевые, Ns - слоисто-дождевые, Cu - кучевые, Cb - кучево-дождевые. Подробнее классификацию облаков см. в Атласе облаков (PDF).
T - Температура воздуха - температура, измеренная на высоте 2 м над землей.
Td - Температура точки росы - температура, при понижении до которой содержащийся в воздухе водяной пар достигнет насыщения.
f - Относительная влажность воздуха - влажноcть воздуха, измеренная на высоте 2 м над землей.
Te - Эффективная температура - температура, которую ощущает одетый по сезону человек в тени. Характеристика душности погоды. При расчете учитывается влияние влажности воздуха и скорости ветра на теплоощущения человека.
Tes - Эффективная температура на солнце - температура, которую ощущает человек, с поправкой на солнечный нагрев. Характеристика знойности погоды. Зависит от высоты солнца над горизонтом, облачности и скорости ветра. Ночью, в пасмурную погоду, а также при ветре 12 м/с и более поправка равна нулю.
P - Атмосферное давление - приведенное к уровню моря атмосферное давление.
Po - Атмосферное давление - измеренное на уровне метеостанции атмосферное давление.
Tmin - Минимальная температура - минимум температуры воздуха на высоте 2 м над землей.
Tmax - Максимальная температура - максимум температуры воздуха на высоте 2 м над землей.
R - Количество осадков - Количество выпавших осадков, мм. При наведении курсора мыши на число - период времени, за который выпало указанное количество осадков.
S - Снежный покров - Высота снежного покрова, см. При наведении курсора мыши на число - состояние снежного покрова и степень покрытия местности в баллах.